Time,TemperatureF,DewpointF,PressureIn,WindDirection,WindDirectionDegrees,WindSpeedMPH,WindSpeedGustMPH,Humidity,HourlyPrecipIn,Conditions,Clouds,dailyrainin,SoftwareType,DateUTC
2013-03-14 00:00:00,59.2,37.3,30.40,SSE,165,7.0,9.0,44,0.00,,CLR,0.00,VWS V14.01,2013-03-14 05:00:00,
2013-03-14 00:05:00,59.0,37.1,30.40,SSE,159,1.0,10.0,44,0.00,,CLR,0.00,VWS V14.01,2013-03-14 05:05:00,
2013-03-14 00:10:00,58.7,37.4,30.40,South,182,2.0,5.0,45,0.00,,CLR,0.00,VWS V14.01,2013-03-14 05:10:00,
2013-03-14 00:15:00,58.6,37.9,30.39,SSE,148,0.0,5.0,46,0.00,,CLR,0.00,VWS V14.01,2013-03-14 05:15:00,
2013-03-14 00:20:00,58.3,38.2,30.39,SE,135,2.0,2.0,47,0.00,,CLR,0.00,VWS V14.01,2013-03-14 05:20:00,
2013-03-14 00:25:00,58.1,38.5,30.39,SE,145,3.0,12.0,48,0.00,,CLR,0.00,VWS V14.01,2013-03-14 05:25:00,
2013-03-14 00:30:00,58.0,39.5,30.38,SSE,165,0.0,4.0,50,0.00,,CLR,0.00,VWS V14.01,2013-03-14 05:30:00,
2013-03-14 00:35:00,57.6,40.1,30.38,SSE,162,5.0,5.0,52,0.00,,CLR,0.00,VWS V14.01,2013-03-14 05:35:00,
2013-03-14 00:40:00,57.5,41.0,30.38,ESE,115,2.0,3.0,54,0.00,,CLR,0.00,VWS V14.01,2013-03-14 05:40:00,
2013-03-14 00:45:00,57.2,41.7,30.38,SSE,168,1.0,4.0,56,0.00,,CLR,0.00,VWS V14.01,2013-03-14 05:45:00,
2013-03-14 00:50:00,57.0,41.9,30.38,South,170,0.0,2.0,57,0.00,,CLR,0.00,VWS V14.01,2013-03-14 05:50:00,
2013-03-14 00:55:00,56.9,42.3,30.38,SSE,163,0.0,4.0,58,0.00,,CLR,0.00,VWS V14.01,2013-03-14 05:55:00,
2013-03-14 01:00:00,56.7,43.0,30.38,SE,126,0.0,0.0,60,0.00,,CLR,0.00,VWS V14.01,2013-03-14 06:00:00,
2013-03-14 01:05:00,56.5,43.2,30.38,SE,126,0.0,0.0,61,0.00,,CLR,0.00,VWS V14.01,2013-03-14 06:05:00,
2013-03-14 01:10:00,56.3,43.5,30.38,SE,126,0.0,0.0,62,0.00,,CLR,0.00,VWS V14.01,2013-03-14 06:10:00,
2013-03-14 01:15:00,56.2,43.8,30.38,SE,130,0.0,0.0,63,0.00,,CLR,0.00,VWS V14.01,2013-03-14 06:15:00,
2013-03-14 01:20:00,56.0,44.0,30.38,SE,136,1.0,1.0,64,0.00,,CLR,0.00,VWS V14.01,2013-03-14 06:20:00,
2013-03-14 01:25:00,56.0,44.4,30.38,SE,136,0.0,2.0,65,0.00,,CLR,0.00,VWS V14.01,2013-03-14 06:25:00,
2013-03-14 01:30:00,55.9,44.7,30.37,SE,136,0.0,0.0,66,0.00,,CLR,0.00,VWS V14.01,2013-03-14 06:30:00,
2013-03-14 01:35:00,55.7,44.5,30.37,ESE,110,0.0,3.0,66,0.00,,CLR,0.00,VWS V14.01,2013-03-14 06:35:00,
2013-03-14 01:40:00,55.6,44.8,30.37,SE,126,0.0,0.0,67,0.00,,CLR,0.00,VWS V14.01,2013-03-14 06:40:00,
2013-03-14 01:45:00,55.6,45.2,30.37,SE,124,0.0,5.0,68,0.00,,CLR,0.00,VWS V14.01,2013-03-14 06:45:00,
2013-03-14 01:50:00,55.6,45.6,30.37,South,169,5.0,5.0,69,0.00,,CLR,0.00,VWS V14.01,2013-03-14 06:50:00,
2013-03-14 01:55:00,55.7,45.7,30.37,SE,145,0.0,6.0,69,0.00,,CLR,0.00,VWS V14.01,2013-03-14 06:55:00,
2013-03-14 02:00:00,55.6,46.0,30.37,SE,145,0.0,0.0,70,0.00,,CLR,0.00,VWS V14.01,2013-03-14 07:00:00,
2013-03-14 02:05:00,55.7,46.1,30.37,SSE,163,1.0,6.0,70,0.00,,CLR,0.00,VWS V14.01,2013-03-14 07:05:00,
2013-03-14 02:10:00,55.7,46.1,30.37,SSE,150,0.0,0.0,70,0.00,,CLR,0.00,VWS V14.01,2013-03-14 07:10:00,
2013-03-14 02:15:00,55.6,46.0,30.37,SSE,161,0.0,4.0,70,0.00,,CLR,0.00,VWS V14.01,2013-03-14 07:15:00,
2013-03-14 02:20:00,55.6,46.0,30.37,SSE,154,0.0,0.0,70,0.00,,CLR,0.00,VWS V14.01,2013-03-14 07:20:00,
2013-03-14 02:25:00,55.4,46.2,30.37,SSE,154,0.0,0.0,71,0.00,,CLR,0.00,VWS V14.01,2013-03-14 07:25:00,
2013-03-14 02:30:00,55.3,46.1,30.37,SSE,156,0.0,2.0,71,0.00,,CLR,0.00,VWS V14.01,2013-03-14 07:30:00,
2013-03-14 02:35:00,55.3,46.1,30.37,SSE,156,0.0,2.0,71,0.00,,CLR,0.00,VWS V14.01,2013-03-14 07:35:00,
2013-03-14 02:40:00,55.3,46.1,30.37,SSE,156,0.0,0.0,71,0.00,,CLR,0.00,VWS V14.01,2013-03-14 07:40:00,
2013-03-14 02:45:00,55.1,46.2,30.36,SSE,156,0.0,0.0,72,0.00,,CLR,0.00,VWS V14.01,2013-03-14 07:45:00,
2013-03-14 02:50:00,55.0,46.2,30.36,SSE,155,0.0,0.0,72,0.00,,CLR,0.00,VWS V14.01,2013-03-14 07:50:00,
2013-03-14 02:55:00,55.0,46.2,30.36,SSE,159,0.0,4.0,72,0.00,,CLR,0.00,VWS V14.01,2013-03-14 07:55:00,
2013-03-14 03:00:00,54.8,46.0,30.36,SSE,159,0.0,0.0,72,0.00,,CLR,0.00,VWS V14.01,2013-03-14 08:00:00,
2013-03-14 03:05:00,54.8,46.3,30.36,SSE,159,0.0,0.0,73,0.00,,CLR,0.00,VWS V14.01,2013-03-14 08:05:00,
2013-03-14 03:10:00,54.7,46.2,30.36,SSE,159,0.0,0.0,73,0.00,,CLR,0.00,VWS V14.01,2013-03-14 08:10:00,
2013-03-14 03:15:00,54.5,46.0,30.35,SSE,159,0.0,0.0,73,0.00,,CLR,0.00,VWS V14.01,2013-03-14 08:15:00,
2013-03-14 03:20:00,54.4,46.3,30.35,SSE,159,0.0,0.0,74,0.00,,CLR,0.00,VWS V14.01,2013-03-14 08:20:00,
2013-03-14 03:25:00,54.4,46.3,30.35,SSE,159,0.0,0.0,74,0.00,,CLR,0.00,VWS V14.01,2013-03-14 08:25:00,
2013-03-14 03:30:00,54.4,46.3,30.35,SSE,159,0.0,0.0,74,0.00,,CLR,0.00,VWS V14.01,2013-03-14 08:30:00,
2013-03-14 03:35:00,54.2,46.1,30.35,SSE,159,0.0,0.0,74,0.00,,CLR,0.00,VWS V14.01,2013-03-14 08:35:00,
2013-03-14 03:40:00,53.8,45.7,30.35,SSE,159,0.0,0.0,74,0.00,,CLR,0.00,VWS V14.01,2013-03-14 08:40:00,
2013-03-14 03:45:00,53.3,45.2,30.35,SSE,159,0.0,0.0,74,0.00,,CLR,0.00,VWS V14.01,2013-03-14 08:45:00,
2013-03-14 03:50:00,53.1,45.0,30.35,SSE,159,0.0,0.0,74,0.00,,CLR,0.00,VWS V14.01,2013-03-14 08:50:00,
2013-03-14 03:55:00,52.8,45.1,30.35,SSE,159,0.0,0.0,75,0.00,,CLR,0.00,VWS V14.01,2013-03-14 08:55:00,
2013-03-14 04:00:00,52.6,45.3,30.34,SSE,159,0.0,0.0,76,0.00,,CLR,0.00,VWS V14.01,2013-03-14 09:00:00,
2013-03-14 04:05:00,52.5,45.5,30.34,SSE,159,0.0,0.0,77,0.00,,CLR,0.00,VWS V14.01,2013-03-14 09:05:00,
2013-03-14 04:10:00,52.5,45.5,30.34,SSE,159,0.0,0.0,77,0.00,,CLR,0.00,VWS V14.01,2013-03-14 09:10:00,
2013-03-14 04:15:00,52.3,45.7,30.34,SSE,159,0.0,0.0,78,0.00,,CLR,0.00,VWS V14.01,2013-03-14 09:15:00,
2013-03-14 04:20:00,52.0,45.4,30.34,SSE,159,0.0,0.0,78,0.00,,CLR,0.00,VWS V14.01,2013-03-14 09:20:00,
2013-03-14 04:25:00,51.9,45.3,30.34,SSE,159,0.0,0.0,78,0.00,,CLR,0.00,VWS V14.01,2013-03-14 09:25:00,
2013-03-14 04:30:00,51.7,45.1,30.33,SSE,159,0.0,0.0,78,0.00,,CLR,0.00,VWS V14.01,2013-03-14 09:30:00,
2013-03-14 04:35:00,51.4,45.1,30.33,SSE,159,0.0,0.0,79,0.00,,CLR,0.00,VWS V14.01,2013-03-14 09:35:00,
2013-03-14 04:40:00,51.3,45.0,30.33,SSE,159,0.0,0.0,79,0.00,,CLR,0.00,VWS V14.01,2013-03-14 09:40:00,
2013-03-14 04:45:00,51.1,44.8,30.33,SSE,159,0.0,0.0,79,0.00,,CLR,0.00,VWS V14.01,2013-03-14 09:45:00,
2013-03-14 04:50:00,51.0,44.7,30.33,SSE,159,0.0,0.0,79,0.00,,CLR,0.00,VWS V14.01,2013-03-14 09:50:00,
2013-03-14 04:55:00,50.8,44.9,30.33,SSE,159,0.0,0.0,80,0.00,,CLR,0.00,VWS V14.01,2013-03-14 09:55:00,
2013-03-14 05:00:00,50.7,44.8,30.33,SSE,159,0.0,0.0,80,0.00,,CLR,0.00,VWS V14.01,2013-03-14 10:00:00,
2013-03-14 05:05:00,50.5,44.6,30.33,SSE,159,0.0,0.0,80,0.00,,CLR,0.00,VWS V14.01,2013-03-14 10:05:00,
2013-03-14 05:10:00,50.4,44.5,30.33,SSE,159,0.0,0.0,80,0.00,,CLR,0.00,VWS V14.01,2013-03-14 10:10:00,
2013-03-14 05:15:00,50.4,44.8,30.34,SSE,159,0.0,0.0,81,0.00,,CLR,0.00,VWS V14.01,2013-03-14 10:15:00,
2013-03-14 05:20:00,50.1,44.5,30.34,SSE,159,0.0,0.0,81,0.00,,CLR,0.00,VWS V14.01,2013-03-14 10:20:00,
2013-03-14 05:25:00,49.9,44.3,30.34,SSE,159,0.0,0.0,81,0.00,,CLR,0.00,VWS V14.01,2013-03-14 10:25:00,
2013-03-14 05:30:00,49.8,44.2,30.34,SSE,159,0.0,0.0,81,0.00,,CLR,0.00,VWS V14.01,2013-03-14 10:30:00,
2013-03-14 05:35:00,49.8,44.2,30.34,SSE,159,0.0,0.0,81,0.00,,CLR,0.00,VWS V14.01,2013-03-14 10:35:00,
2013-03-14 05:40:00,49.6,44.0,30.34,SSE,159,0.0,0.0,81,0.00,,CLR,0.00,VWS V14.01,2013-03-14 10:40:00,
2013-03-14 05:45:00,49.5,44.2,30.35,SSE,159,0.0,0.0,82,0.00,,CLR,0.00,VWS V14.01,2013-03-14 10:45:00,
2013-03-14 05:50:00,49.4,44.1,30.35,SSE,159,0.0,0.0,82,0.00,,CLR,0.00,VWS V14.01,2013-03-14 10:50:00,
2013-03-14 05:55:00,49.2,44.0,30.35,SSE,159,0.0,0.0,82,0.00,,CLR,0.00,VWS V14.01,2013-03-14 10:55:00,
2013-03-14 06:00:00,49.1,43.8,30.35,SSE,159,0.0,0.0,82,0.00,,CLR,0.00,VWS V14.01,2013-03-14 11:00:00,
2013-03-14 06:05:00,48.9,43.7,30.35,SSE,159,0.0,0.0,82,0.00,,CLR,0.00,VWS V14.01,2013-03-14 11:05:00,
2013-03-14 06:10:00,48.8,43.6,30.35,SSE,159,0.0,0.0,82,0.00,,CLR,0.00,VWS V14.01,2013-03-14 11:10:00,
2013-03-14 06:15:00,48.6,43.4,30.36,SSE,159,0.0,0.0,82,0.00,,CLR,0.00,VWS V14.01,2013-03-14 11:15:00,
2013-03-14 06:20:00,48.5,43.6,30.36,SSE,159,0.0,0.0,83,0.00,,CLR,0.00,VWS V14.01,2013-03-14 11:20:00,
2013-03-14 06:25:00,48.3,43.4,30.36,SSE,159,0.0,0.0,83,0.00,,CLR,0.00,VWS V14.01,2013-03-14 11:25:00,
2013-03-14 06:30:00,48.2,43.3,30.36,SSE,159,0.0,0.0,83,0.00,,CLR,0.00,VWS V14.01,2013-03-14 11:30:00,
2013-03-14 06:35:00,48.0,43.1,30.36,SSE,159,0.0,0.0,83,0.00,,CLR,0.00,VWS V14.01,2013-03-14 11:35:00,
2013-03-14 06:40:00,48.0,43.1,30.36,SSE,159,0.0,0.0,83,0.00,,CLR,0.00,VWS V14.01,2013-03-14 11:40:00,
2013-03-14 06:45:00,47.9,43.0,30.37,SSE,159,0.0,0.0,83,0.00,,CLR,0.00,VWS V14.01,2013-03-14 11:45:00,
2013-03-14 06:50:00,47.7,42.8,30.37,SSE,159,0.0,0.0,83,0.00,,CLR,0.00,VWS V14.01,2013-03-14 11:50:00,
2013-03-14 06:55:00,47.7,43.1,30.37,SSE,159,0.0,0.0,84,0.00,,CLR,0.00,VWS V14.01,2013-03-14 11:55:00,
2013-03-14 07:00:00,47.6,43.0,30.37,SSE,159,0.0,0.0,84,0.00,,CLR,0.00,VWS V14.01,2013-03-14 12:00:00,
2013-03-14 07:05:00,47.6,43.0,30.37,SSE,159,0.0,0.0,84,0.00,,CLR,0.00,VWS V14.01,2013-03-14 12:05:00,
2013-03-14 07:10:00,47.4,42.8,30.37,SSE,159,0.0,0.0,84,0.00,,CLR,0.00,VWS V14.01,2013-03-14 12:10:00,
2013-03-14 07:15:00,47.4,42.8,30.37,SSE,159,0.0,0.0,84,0.00,,CLR,0.00,VWS V14.01,2013-03-14 12:15:00,
2013-03-14 07:20:00,47.4,43.1,30.37,SSE,159,0.0,0.0,85,0.00,,CLR,0.00,VWS V14.01,2013-03-14 12:20:00,
2013-03-14 07:25:00,47.4,43.1,30.37,SSE,159,0.0,0.0,85,0.00,,CLR,0.00,VWS V14.01,2013-03-14 12:25:00,
2013-03-14 07:29:00,47.3,43.0,30.38,SSE,159,0.0,0.0,85,0.00,,CLR,0.00,VWS V14.01,2013-03-14 12:29:00,
2013-03-14 07:34:00,47.3,43.0,30.38,SSE,159,0.0,0.0,85,0.00,,CLR,0.00,VWS V14.01,2013-03-14 12:34:00,
2013-03-14 07:39:00,47.3,43.0,30.38,SSE,159,0.0,0.0,85,0.00,,CLR,0.00,VWS V14.01,2013-03-14 12:39:00,
2013-03-14 07:44:00,47.3,43.0,30.38,SSE,159,0.0,0.0,85,0.00,,CLR,0.00,VWS V14.01,2013-03-14 12:44:00,
2013-03-14 07:49:00,47.3,43.0,30.38,SSE,159,0.0,0.0,85,0.00,,CLR,0.00,VWS V14.01,2013-03-14 12:49:00,
2013-03-14 07:54:00,47.3,43.0,30.38,SSE,159,0.0,0.0,85,0.00,,CLR,0.00,VWS V14.01,2013-03-14 12:54:00,
2013-03-14 07:59:00,47.4,43.1,30.39,SSE,159,0.0,0.0,85,0.00,,CLR,0.00,VWS V14.01,2013-03-14 12:59:00,
2013-03-14 08:04:00,47.6,43.3,30.39,SSE,159,0.0,0.0,85,0.00,,CLR,0.00,VWS V14.01,2013-03-14 13:04:00,
2013-03-14 08:09:00,47.9,43.6,30.39,SSE,159,0.0,0.0,85,0.00,,CLR,0.00,VWS V14.01,2013-03-14 13:09:00,
2013-03-14 08:14:00,47.9,43.6,30.39,SSE,159,0.0,0.0,85,0.00,,CLR,0.00,VWS V14.01,2013-03-14 13:14:00,
2013-03-14 08:19:00,48.0,43.7,30.39,SSE,159,0.0,0.0,85,0.00,,CLR,0.00,VWS V14.01,2013-03-14 13:19:00,
2013-03-14 08:24:00,48.3,44.0,30.39,SSE,159,0.0,0.0,85,0.00,,CLR,0.00,VWS V14.01,2013-03-14 13:24:00,
2013-03-14 08:29:00,48.6,44.3,30.40,SSE,159,0.0,0.0,85,0.00,,CLR,0.00,VWS V14.01,2013-03-14 13:29:00,
2013-03-14 08:34:00,48.9,44.3,30.40,SSE,159,0.0,0.0,84,0.00,,CLR,0.00,VWS V14.01,2013-03-14 13:34:00,
2013-03-14 08:39:00,49.4,44.8,30.40,SSE,159,0.0,0.0,84,0.00,,CLR,0.00,VWS V14.01,2013-03-14 13:39:00,
2013-03-14 08:44:00,49.8,45.2,30.40,SSE,159,0.0,0.0,84,0.00,,BKN013,0.00,VWS V14.01,2013-03-14 13:44:00,
2013-03-14 08:49:00,50.4,45.4,30.40,SSE,159,0.0,0.0,83,0.00,,BKN013,0.00,VWS V14.01,2013-03-14 13:49:00,
2013-03-14 08:54:00,51.0,46.0,30.40,SSE,159,0.0,0.0,83,0.00,,BKN013,0.00,VWS V14.01,2013-03-14 13:54:00,
2013-03-14 08:59:00,51.6,46.3,30.40,SSE,159,0.0,0.0,82,0.00,,OVC013,0.00,VWS V14.01,2013-03-14 13:59:00,
2013-03-14 09:04:00,52.3,46.7,30.40,SSE,159,0.0,0.0,81,0.00,,OVC013,0.00,VWS V14.01,2013-03-14 14:04:00,
2013-03-14 09:09:00,52.8,47.1,30.40,SSE,159,0.0,0.0,81,0.00,,OVC013,0.00,VWS V14.01,2013-03-14 14:09:00,
2013-03-14 09:14:00,53.3,47.3,30.41,SSE,159,0.0,0.0,80,0.00,,OVC013,0.00,VWS V14.01,2013-03-14 14:14:00,
2013-03-14 09:19:00,53.9,47.5,30.41,SSE,159,0.0,0.0,79,0.00,,OVC013,0.00,VWS V14.01,2013-03-14 14:19:00,
2013-03-14 09:24:00,54.7,48.3,30.41,SSE,159,0.0,0.0,79,0.00,,OVC020,0.00,VWS V14.01,2013-03-14 14:24:00,
2013-03-14 09:29:00,55.7,49.3,30.41,SSE,159,0.0,0.0,79,0.00,,OVC020,0.00,VWS V14.01,2013-03-14 14:29:00,
2013-03-14 09:34:00,56.5,49.7,30.41,SSE,159,0.0,2.0,78,0.00,,OVC020,0.00,VWS V14.01,2013-03-14 14:34:00,
2013-03-14 09:39:00,57.2,50.1,30.41,SSE,159,0.0,0.0,77,0.00,,OVC020,0.00,VWS V14.01,2013-03-14 14:39:00,
2013-03-14 09:44:00,57.8,50.3,30.42,SSE,159,0.0,0.0,76,0.00,,OVC020,0.00,VWS V14.01,2013-03-14 14:44:00,
2013-03-14 09:49:00,58.3,50.4,30.42,South,176,0.0,0.0,75,0.00,,OVC020,0.00,VWS V14.01,2013-03-14 14:49:00,
2013-03-14 09:54:00,58.4,50.5,30.42,South,176,0.0,0.0,75,0.00,,OVC020,0.00,VWS V14.01,2013-03-14 14:54:00,
2013-03-14 09:59:00,59.6,51.3,30.42,WSW,239,0.0,0.0,74,0.00,,BKN020,0.00,VWS V14.01,2013-03-14 14:59:00,
2013-03-14 10:04:00,60.1,51.8,30.42,SSW,205,0.0,3.0,74,0.00,,BKN020,0.00,VWS V14.01,2013-03-14 15:04:00,
2013-03-14 10:09:00,60.5,51.8,30.42,SSW,205,0.0,0.0,73,0.00,,BKN020,0.00,VWS V14.01,2013-03-14 15:09:00,
2013-03-14 10:14:00,61.3,52.2,30.42,SSE,153,0.0,3.0,72,0.00,,BKN020,0.00,VWS V14.01,2013-03-14 15:14:00,
2013-03-14 10:19:00,62.4,52.5,30.42,South,182,0.0,3.0,70,0.00,,BKN020,0.00,VWS V14.01,2013-03-14 15:19:00,
2013-03-14 10:24:00,62.7,52.8,30.42,South,174,0.0,6.0,70,0.00,,BKN020,0.00,VWS V14.01,2013-03-14 15:24:00,
2013-03-14 10:29:00,63.4,53.1,30.41,WSW,242,3.0,6.0,69,0.00,,BKN020,0.00,VWS V14.01,2013-03-14 15:29:00,
2013-03-14 10:34:00,63.9,53.1,30.41,South,174,0.0,8.0,68,0.00,,BKN020,0.00,VWS V14.01,2013-03-14 15:34:00,
2013-03-14 10:39:00,64.5,53.3,30.41,South,187,5.0,7.0,67,0.00,,BKN020,0.00,VWS V14.01,2013-03-14 15:39:00,
2013-03-14 10:44:00,65.0,53.4,30.41,SSE,150,2.0,10.0,66,0.00,,BKN020,0.00,VWS V14.01,2013-03-14 15:44:00,
2013-03-14 10:49:00,65.5,53.8,30.41,South,175,0.0,0.0,66,0.00,,BKN020,0.00,VWS V14.01,2013-03-14 15:49:00,
2013-03-14 10:54:00,66.0,53.9,30.41,South,183,0.0,13.0,65,0.00,,BKN020,0.00,VWS V14.01,2013-03-14 15:54:00,
2013-03-14 10:59:00,66.0,53.1,30.41,SSW,202,0.0,0.0,63,0.00,,BKN022,0.00,VWS V14.01,2013-03-14 15:59:00,
2013-03-14 11:04:00,65.6,53.1,30.41,South,182,0.0,0.0,64,0.00,,BKN022,0.00,VWS V14.01,2013-03-14 16:04:00,
2013-03-14 11:09:00,65.5,53.4,30.41,South,180,0.0,0.0,65,0.00,,BKN022,0.00,VWS V14.01,2013-03-14 16:09:00,
2013-03-14 11:14:00,66.0,53.5,30.41,SSW,193,0.0,1.0,64,0.00,,BKN022,0.00,VWS V14.01,2013-03-14 16:14:00,
2013-03-14 11:19:00,66.8,53.4,30.41,South,178,0.0,0.0,62,0.00,,BKN022,0.00,VWS V14.01,2013-03-14 16:19:00,
2013-03-14 11:24:00,66.6,51.8,30.41,South,182,10.0,13.0,59,0.00,,BKN022,0.00,VWS V14.01,2013-03-14 16:24:00,
2013-03-14 11:29:00,66.8,52.0,30.41,SSW,194,10.0,10.0,59,0.00,,BKN022,0.00,VWS V14.01,2013-03-14 16:29:00,
2013-03-14 11:34:00,66.8,51.6,30.41,South,186,4.0,11.0,58,0.00,,SCT024,0.00,VWS V14.01,2013-03-14 16:34:00,
2013-03-14 11:39:00,66.8,51.6,30.41,South,186,7.0,12.0,58,0.00,,SCT024,0.00,VWS V14.01,2013-03-14 16:39:00,
2013-03-14 11:44:00,67.3,51.1,30.41,SSW,200,10.0,12.0,56,0.00,,SCT024,0.00,VWS V14.01,2013-03-14 16:44:00,
2013-03-14 11:49:00,68.1,50.8,30.41,South,171,3.0,5.0,54,0.00,,SCT024,0.00,VWS V14.01,2013-03-14 16:49:00,
2013-03-14 11:54:00,68.8,50.0,30.41,South,173,12.0,12.0,51,0.00,,SCT024,0.00,VWS V14.01,2013-03-14 16:54:00,
2013-03-14 11:59:00,69.1,50.2,30.41,SSW,192,5.0,5.0,51,0.00,,SCT024,0.00,VWS V14.01,2013-03-14 16:59:00,
2013-03-14 12:04:00,69.6,49.6,30.41,South,184,0.0,10.0,49,0.00,,SCT024,0.00,VWS V14.01,2013-03-14 17:04:00,
2013-03-14 12:09:00,69.8,50.3,30.41,SE,146,3.0,5.0,50,0.00,,SCT024,0.00,VWS V14.01,2013-03-14 17:09:00,
2013-03-14 12:14:00,69.9,50.4,30.40,South,179,4.0,10.0,50,0.00,,SCT024,0.00,VWS V14.01,2013-03-14 17:14:00,
2013-03-14 12:19:00,69.9,50.4,30.40,South,180,5.0,7.0,50,0.00,,SCT024,0.00,VWS V14.01,2013-03-14 17:19:00,
2013-03-14 12:24:00,70.4,49.8,30.40,SSW,205,6.0,14.0,48,0.00,,SCT024,0.00,VWS V14.01,2013-03-14 17:24:00,
2013-03-14 12:29:00,70.8,50.2,30.40,South,175,1.0,1.0,48,0.00,,SCT024,0.00,VWS V14.01,2013-03-14 17:29:00,
2013-03-14 12:34:00,70.9,50.2,30.40,South,175,6.0,10.0,48,0.00,,SCT024,0.00,VWS V14.01,2013-03-14 17:34:00,
2013-03-14 12:39:00,71.1,49.9,30.40,SSW,198,0.0,0.0,47,0.00,,SCT024,0.00,VWS V14.01,2013-03-14 17:39:00,
2013-03-14 12:44:00,72.0,48.9,30.39,South,172,1.0,7.0,44,0.00,,SCT024,0.00,VWS V14.01,2013-03-14 17:44:00,
2013-03-14 12:49:00,72.7,49.5,30.39,South,188,3.0,9.0,44,0.00,,SCT024,0.00,VWS V14.01,2013-03-14 17:49:00,
2013-03-14 12:54:00,72.3,49.8,30.39,SSW,205,1.0,10.0,45,0.00,,SCT024,0.00,VWS V14.01,2013-03-14 17:54:00,
2013-03-14 12:59:00,72.7,48.9,30.38,South,178,6.0,6.0,43,0.00,,FEW035,0.00,VWS V14.01,2013-03-14 17:59:00,
2013-03-14 13:04:00,72.8,49.6,30.38,SSE,167,3.0,13.0,44,0.00,,FEW035,0.00,VWS V14.01,2013-03-14 18:04:00,
2013-03-14 13:09:00,73.3,48.2,30.38,SSW,201,5.0,6.0,41,0.00,,FEW035,0.00,VWS V14.01,2013-03-14 18:09:00,
2013-03-14 13:14:00,73.5,47.7,30.37,SW,229,10.0,14.0,40,0.00,,FEW035,0.00,VWS V14.01,2013-03-14 18:14:00,
2013-03-14 13:19:00,73.9,47.4,30.37,South,185,3.0,3.0,39,0.00,,FEW035,0.00,VWS V14.01,2013-03-14 18:19:00,
2013-03-14 13:24:00,73.7,47.9,30.37,SSW,197,2.0,13.0,40,0.00,,FEW035,0.00,VWS V14.01,2013-03-14 18:24:00,
2013-03-14 13:29:00,73.7,47.9,30.36,SSW,201,5.0,6.0,40,0.00,,FEW035,0.00,VWS V14.01,2013-03-14 18:29:00,
2013-03-14 13:34:00,74.0,48.2,30.36,South,169,9.0,9.0,40,0.00,,FEW035,0.00,VWS V14.01,2013-03-14 18:34:00,
2013-03-14 13:39:00,74.4,47.9,30.36,South,184,2.0,3.0,39,0.00,,FEW035,0.00,VWS V14.01,2013-03-14 18:39:00,
2013-03-14 13:44:00,74.6,48.7,30.35,South,174,2.0,10.0,40,0.00,,FEW035,0.00,VWS V14.01,2013-03-14 18:44:00,
2013-03-14 13:49:00,74.9,48.3,30.35,SSE,163,0.0,0.0,39,0.00,,FEW035,0.00,VWS V14.01,2013-03-14 18:49:00,
2013-03-14 13:54:00,75.8,46.2,30.35,South,172,2.0,10.0,35,0.00,,FEW035,0.00,VWS V14.01,2013-03-14 18:54:00,
2013-03-14 13:59:00,76.1,43.3,30.35,South,191,2.0,3.0,31,0.00,,CLR,0.00,VWS V14.01,2013-03-14 18:59:00,
2013-03-14 14:04:00,76.0,43.2,30.35,SSW,193,6.0,16.0,31,0.00,,CLR,0.00,VWS V14.01,2013-03-14 19:04:00,
2013-03-14 14:09:00,75.8,43.9,30.35,SSW,200,3.0,3.0,32,0.00,,CLR,0.00,VWS V14.01,2013-03-14 19:09:00,
2013-03-14 14:14:00,75.8,43.9,30.33,SSW,200,3.0,3.0,32,0.00,,CLR,0.00,VWS V14.01,2013-03-14 19:14:00,
2013-03-14 14:19:00,76.8,44.7,30.33,SSE,154,4.0,6.0,32,0.00,,CLR,0.00,VWS V14.01,2013-03-14 19:19:00,
2013-03-14 14:24:00,76.7,44.7,30.33,SSE,159,0.0,6.0,32,0.00,,CLR,0.00,VWS V14.01,2013-03-14 19:24:00,
2013-03-14 14:29:00,77.6,44.6,30.32,South,175,2.0,3.0,31,0.00,,CLR,0.00,VWS V14.01,2013-03-14 19:29:00,
2013-03-14 14:34:00,77.4,44.4,30.32,SSW,200,5.0,11.0,31,0.00,,CLR,0.00,VWS V14.01,2013-03-14 19:34:00,
2013-03-14 14:39:00,77.7,44.7,30.32,East,89,0.0,1.0,31,0.00,,CLR,0.00,VWS V14.01,2013-03-14 19:39:00,
2013-03-14 14:44:00,77.9,44.9,30.32,South,171,4.0,11.0,31,0.00,,CLR,0.00,VWS V14.01,2013-03-14 19:44:00,
2013-03-14 14:49:00,78.1,44.2,30.32,SSW,200,7.0,9.0,30,0.00,,CLR,0.00,VWS V14.01,2013-03-14 19:49:00,
2013-03-14 14:54:00,77.7,44.7,30.32,South,176,10.0,10.0,31,0.00,,CLR,0.00,VWS V14.01,2013-03-14 19:54:00,
2013-03-14 14:59:00,77.9,43.1,30.30,South,175,0.0,5.0,29,0.00,,CLR,0.00,VWS V14.01,2013-03-14 19:59:00,
2013-03-14 15:04:00,77.9,44.0,30.30,ESE,112,5.0,10.0,30,0.00,,CLR,0.00,VWS V14.01,2013-03-14 20:04:00,
2013-03-14 15:09:00,78.3,44.3,30.30,South,183,0.0,0.0,30,0.00,,CLR,0.00,VWS V14.01,2013-03-14 20:09:00,
2013-03-14 15:14:00,78.5,43.6,30.30,West,267,5.0,10.0,29,0.00,,CLR,0.00,VWS V14.01,2013-03-14 20:14:00,
2013-03-14 15:19:00,78.6,42.8,30.30,SW,223,4.0,7.0,28,0.00,,CLR,0.00,VWS V14.01,2013-03-14 20:19:00,
2013-03-14 15:24:00,78.8,43.0,30.30,South,188,6.0,11.0,28,0.00,,CLR,0.00,VWS V14.01,2013-03-14 20:24:00,
2013-03-14 15:29:00,79.0,42.2,30.29,SSE,158,2.0,7.0,27,0.00,,CLR,0.00,VWS V14.01,2013-03-14 20:29:00,
2013-03-14 15:34:00,78.5,41.8,30.29,SW,230,0.0,13.0,27,0.00,,CLR,0.00,VWS V14.01,2013-03-14 20:34:00,
2013-03-14 15:39:00,78.8,43.0,30.29,SE,129,5.0,11.0,28,0.00,,CLR,0.00,VWS V14.01,2013-03-14 20:39:00,
2013-03-14 15:44:00,78.3,42.5,30.28,SSE,147,7.0,14.0,28,0.00,,CLR,0.00,VWS V14.01,2013-03-14 20:44:00,
2013-03-14 15:49:00,77.9,42.2,30.28,SSE,167,2.0,3.0,28,0.00,,CLR,0.00,VWS V14.01,2013-03-14 20:49:00,
2013-03-14 15:54:00,78.5,41.8,30.28,South,188,0.0,11.0,27,0.00,,CLR,0.00,VWS V14.01,2013-03-14 20:54:00,
2013-03-14 15:59:00,79.6,42.7,30.27,South,191,3.0,3.0,27,0.00,,CLR,0.00,VWS V14.01,2013-03-14 20:59:00,
2013-03-14 16:04:00,79.6,41.7,30.27,SSW,195,13.0,16.0,26,0.00,,CLR,0.00,VWS V14.01,2013-03-14 21:04:00,
2013-03-14 16:09:00,78.6,41.9,30.27,SSE,161,4.0,7.0,27,0.00,,CLR,0.00,VWS V14.01,2013-03-14 21:09:00,
2013-03-14 16:14:00,78.5,41.8,30.27,South,190,0.0,11.0,27,0.00,,CLR,0.00,VWS V14.01,2013-03-14 21:14:00,
2013-03-14 16:19:00,79.0,42.2,30.27,South,190,10.0,10.0,27,0.00,,CLR,0.00,VWS V14.01,2013-03-14 21:19:00,
2013-03-14 16:24:00,79.4,43.5,30.27,SSE,167,7.0,11.0,28,0.00,,CLR,0.00,VWS V14.01,2013-03-14 21:24:00,
2013-03-14 16:29:00,79.4,43.5,30.27,South,171,7.0,7.0,28,0.00,,CLR,0.00,VWS V14.01,2013-03-14 21:29:00,
2013-03-14 16:34:00,79.2,43.3,30.27,SSE,159,0.0,11.0,28,0.00,,CLR,0.00,VWS V14.01,2013-03-14 21:34:00,
2013-03-14 16:39:00,79.6,43.7,30.27,South,172,0.0,0.0,28,0.00,,CLR,0.00,VWS V14.01,2013-03-14 21:39:00,
2013-03-14 16:44:00,79.8,42.9,30.26,SSE,158,3.0,6.0,27,0.00,,CLR,0.00,VWS V14.01,2013-03-14 21:44:00,
2013-03-14 16:49:00,79.6,42.7,30.26,SSW,194,5.0,10.0,27,0.00,,CLR,0.00,VWS V14.01,2013-03-14 21:49:00,
2013-03-14 16:54:00,79.2,43.3,30.26,SSW,192,4.0,12.0,28,0.00,,CLR,0.00,VWS V14.01,2013-03-14 21:54:00,
2013-03-14 16:59:00,79.0,43.2,30.26,SSW,194,2.0,5.0,28,0.00,,CLR,0.00,VWS V14.01,2013-03-14 21:59:00,
2013-03-14 17:04:00,79.2,43.3,30.26,SSW,192,6.0,11.0,28,0.00,,CLR,0.00,VWS V14.01,2013-03-14 22:04:00,
2013-03-14 17:09:00,79.2,43.3,30.26,SSE,155,4.0,6.0,28,0.00,,CLR,0.00,VWS V14.01,2013-03-14 22:09:00,
2013-03-14 17:14:00,79.6,43.7,30.26,South,173,3.0,6.0,28,0.00,,CLR,0.00,VWS V14.01,2013-03-14 22:14:00,
2013-03-14 17:19:00,79.9,43.0,30.26,SE,146,2.0,3.0,27,0.00,,CLR,0.00,VWS V14.01,2013-03-14 22:19:00,
2013-03-14 17:24:00,79.8,42.9,30.26,SSE,163,4.0,13.0,27,0.00,,CLR,0.00,VWS V14.01,2013-03-14 22:24:00,
2013-03-14 17:29:00,79.6,42.7,30.25,SSW,197,2.0,3.0,27,0.00,,CLR,0.00,VWS V14.01,2013-03-14 22:29:00,
2013-03-14 17:34:00,79.4,42.5,30.25,South,178,2.0,7.0,27,0.00,,CLR,0.00,VWS V14.01,2013-03-14 22:34:00,
2013-03-14 17:39:00,79.6,42.7,30.25,South,184,5.0,6.0,27,0.00,,CLR,0.00,VWS V14.01,2013-03-14 22:39:00,
2013-03-14 17:44:00,79.0,43.2,30.25,SE,134,1.0,10.0,28,0.00,,CLR,0.00,VWS V14.01,2013-03-14 22:44:00,
2013-03-14 17:49:00,79.0,43.2,30.25,SE,124,0.0,0.0,28,0.00,,CLR,0.00,VWS V14.01,2013-03-14 22:49:00,
2013-03-14 17:54:00,79.0,43.2,30.25,SSW,200,2.0,10.0,28,0.00,,CLR,0.00,VWS V14.01,2013-03-14 22:54:00,
2013-03-14 17:59:00,78.8,43.0,30.25,South,169,1.0,13.0,28,0.00,,CLR,0.00,VWS V14.01,2013-03-14 22:59:00,
2013-03-14 18:04:00,78.8,43.0,30.25,SSE,167,5.0,9.0,28,0.00,,CLR,0.00,VWS V14.01,2013-03-14 23:04:00,
2013-03-14 18:09:00,78.8,43.0,30.25,SSE,159,1.0,12.0,28,0.00,,CLR,0.00,VWS V14.01,2013-03-14 23:09:00,
2013-03-14 18:14:00,78.6,41.9,30.25,South,189,2.0,10.0,27,0.00,,CLR,0.00,VWS V14.01,2013-03-14 23:14:00,
2013-03-14 18:19:00,79.0,42.2,30.25,WSW,251,3.0,10.0,27,0.00,,CLR,0.00,VWS V14.01,2013-03-14 23:19:00,
2013-03-14 18:24:00,79.0,43.2,30.25,SSE,153,6.0,12.0,28,0.00,,CLR,0.00,VWS V14.01,2013-03-14 23:24:00,
2013-03-14 18:29:00,78.3,41.6,30.25,SSE,161,6.0,12.0,27,0.00,,CLR,0.00,VWS V14.01,2013-03-14 23:29:00,
2013-03-14 18:34:00,78.1,41.4,30.25,SE,138,3.0,7.0,27,0.00,,CLR,0.00,VWS V14.01,2013-03-14 23:34:00,
2013-03-14 18:39:00,78.1,42.4,30.25,SSE,155,3.0,11.0,28,0.00,,CLR,0.00,VWS V14.01,2013-03-14 23:39:00,
2013-03-14 18:44:00,78.1,42.4,30.25,SSE,156,4.0,10.0,28,0.00,,CLR,0.00,VWS V14.01,2013-03-14 23:44:00,
2013-03-14 18:49:00,77.9,42.2,30.25,South,169,3.0,10.0,28,0.00,,CLR,0.00,VWS V14.01,2013-03-14 23:49:00,
2013-03-14 18:54:00,77.7,42.9,30.25,SE,140,0.0,6.0,29,0.00,,CLR,0.00,VWS V14.01,2013-03-14 23:54:00,
2013-03-14 18:59:00,77.2,43.4,30.25,SSE,156,0.0,12.0,30,0.00,,CLR,0.00,VWS V14.01,2013-03-14 23:59:00,
2013-03-14 19:04:00,76.8,43.0,30.25,SSE,161,4.0,12.0,30,0.00,,CLR,0.00,VWS V14.01,2013-03-15 00:04:00,
2013-03-14 19:09:00,76.5,43.7,30.25,SE,146,2.0,12.0,31,0.00,,CLR,0.00,VWS V14.01,2013-03-15 00:09:00,
2013-03-14 19:14:00,76.3,43.5,30.25,SE,127,3.0,8.0,31,0.00,,CLR,0.00,VWS V14.01,2013-03-15 00:14:00,
2013-03-14 19:19:00,76.0,44.0,30.25,SE,129,0.0,9.0,32,0.00,,CLR,0.00,VWS V14.01,2013-03-15 00:19:00,
2013-03-14 19:24:00,75.8,43.9,30.25,SE,141,4.0,6.0,32,0.00,,CLR,0.00,VWS V14.01,2013-03-15 00:24:00,
2013-03-14 19:29:00,75.4,44.3,30.26,SSW,212,3.0,11.0,33,0.00,,CLR,0.00,VWS V14.01,2013-03-15 00:29:00,
2013-03-14 19:34:00,75.3,44.2,30.26,East,101,1.0,10.0,33,0.00,,CLR,0.00,VWS V14.01,2013-03-15 00:34:00,
2013-03-14 19:39:00,75.1,44.8,30.26,ESE,123,0.0,10.0,34,0.00,,CLR,0.00,VWS V14.01,2013-03-15 00:39:00,
2013-03-14 19:44:00,74.7,44.5,30.26,SSE,167,0.0,4.0,34,0.00,,CLR,0.00,VWS V14.01,2013-03-15 00:44:00,
2013-03-14 19:49:00,74.6,45.2,30.26,SSE,160,3.0,7.0,35,0.00,,CLR,0.00,VWS V14.01,2013-03-15 00:49:00,
2013-03-14 19:54:00,74.2,44.8,30.26,South,171,4.0,6.0,35,0.00,,CLR,0.00,VWS V14.01,2013-03-15 00:54:00,
2013-03-14 19:59:00,73.9,45.3,30.26,SE,126,4.0,6.0,36,0.00,,CLR,0.00,VWS V14.01,2013-03-15 00:59:00,
2013-03-14 20:04:00,73.5,44.9,30.26,ESE,110,0.0,5.0,36,0.00,,CLR,0.00,VWS V14.01,2013-03-15 01:04:00,
2013-03-14 20:09:00,73.2,45.4,30.26,SSE,151,0.0,8.0,37,0.00,,CLR,0.00,VWS V14.01,2013-03-15 01:09:00,
2013-03-14 20:14:00,72.8,47.1,30.26,SE,133,1.0,10.0,40,0.00,,CLR,0.00,VWS V14.01,2013-03-15 01:14:00,
2013-03-14 20:19:00,72.5,47.5,30.26,SSE,158,3.0,10.0,41,0.00,,CLR,0.00,VWS V14.01,2013-03-15 01:19:00,
2013-03-14 20:24:00,72.1,47.8,30.26,SE,138,5.0,9.0,42,0.00,,CLR,0.00,VWS V14.01,2013-03-15 01:24:00,
2013-03-14 20:29:00,71.8,48.7,30.26,SSE,161,2.0,9.0,44,0.00,,CLR,0.00,VWS V14.01,2013-03-15 01:29:00,
2013-03-14 20:34:00,71.6,49.2,30.26,SSE,163,2.0,15.0,45,0.00,,CLR,0.00,VWS V14.01,2013-03-15 01:34:00,
2013-03-14 20:39:00,71.5,49.7,30.26,SSE,163,5.0,15.0,46,0.00,,CLR,0.00,VWS V14.01,2013-03-15 01:39:00,
2013-03-14 20:44:00,70.9,50.2,30.27,SE,140,6.0,11.0,48,0.00,,CLR,0.00,VWS V14.01,2013-03-15 01:44:00,
2013-03-14 20:49:00,70.8,50.2,30.27,SE,131,4.0,11.0,48,0.00,,CLR,0.00,VWS V14.01,2013-03-15 01:49:00,
2013-03-14 20:54:00,70.3,50.8,30.27,SE,135,4.0,6.0,50,0.00,,CLR,0.00,VWS V14.01,2013-03-15 01:54:00,
2013-03-14 20:59:00,70.1,50.6,30.27,South,169,4.0,9.0,50,0.00,,CLR,0.00,VWS V14.01,2013-03-15 01:59:00,
2013-03-14 21:04:00,69.8,50.9,30.27,SSE,163,3.0,7.0,51,0.00,,CLR,0.00,VWS V14.01,2013-03-15 02:04:00,
2013-03-14 21:09:00,69.4,51.5,30.27,SSE,156,6.0,10.0,53,0.00,,CLR,0.00,VWS V14.01,2013-03-15 02:09:00,
2013-03-14 21:14:00,69.1,51.3,30.27,South,171,4.0,10.0,53,0.00,,CLR,0.00,VWS V14.01,2013-03-15 02:14:00,
2013-03-14 21:19:00,68.8,52.0,30.27,SSE,165,6.0,13.0,55,0.00,,CLR,0.00,VWS V14.01,2013-03-15 02:19:00,
2013-03-14 21:24:00,68.4,51.6,30.27,SSE,159,5.0,9.0,55,0.00,,CLR,0.00,VWS V14.01,2013-03-15 02:24:00,
2013-03-14 21:29:00,68.1,51.8,30.27,ESE,117,0.0,12.0,56,0.00,,CLR,0.00,VWS V14.01,2013-03-15 02:29:00,
2013-03-14 21:34:00,67.9,52.1,30.27,SSE,148,6.0,10.0,57,0.00,,CLR,0.00,VWS V14.01,2013-03-15 02:34:00,
2013-03-14 21:39:00,67.6,51.8,30.27,SSE,166,0.0,11.0,57,0.00,,CLR,0.00,VWS V14.01,2013-03-15 02:39:00,
2013-03-14 21:44:00,67.3,52.0,30.28,SSE,167,2.0,13.0,58,0.00,,CLR,0.00,VWS V14.01,2013-03-15 02:44:00,
2013-03-14 21:49:00,67.1,51.8,30.28,SE,142,2.0,13.0,58,0.00,,CLR,0.00,VWS V14.01,2013-03-15 02:49:00,
2013-03-14 21:54:00,66.8,52.0,30.28,South,184,6.0,12.0,59,0.00,,CLR,0.00,VWS V14.01,2013-03-15 02:54:00,
2013-03-14 21:59:00,66.6,51.8,30.28,SSE,161,0.0,12.0,59,0.00,,CLR,0.00,VWS V14.01,2013-03-15 02:59:00,
2013-03-14 22:04:00,66.3,52.0,30.28,SSE,149,3.0,10.0,60,0.00,,CLR,0.00,VWS V14.01,2013-03-15 03:04:00,
2013-03-14 22:09:00,66.0,51.7,30.28,South,171,0.0,12.0,60,0.00,,CLR,0.00,VWS V14.01,2013-03-15 03:09:00,
2013-03-14 22:14:00,65.8,52.0,30.28,SE,136,2.0,11.0,61,0.00,,CLR,0.00,VWS V14.01,2013-03-15 03:14:00,
2013-03-14 22:19:00,65.5,51.7,30.28,SSE,161,3.0,12.0,61,0.00,,CLR,0.00,VWS V14.01,2013-03-15 03:19:00,
2013-03-14 22:24:00,65.2,51.4,30.28,South,175,5.0,11.0,61,0.00,,CLR,0.00,VWS V14.01,2013-03-15 03:24:00,
2013-03-14 22:29:00,65.0,51.7,30.29,South,171,3.0,12.0,62,0.00,,CLR,0.00,VWS V14.01,2013-03-15 03:29:00,
2013-03-14 22:34:00,64.7,51.8,30.29,South,174,12.0,13.0,63,0.00,,CLR,0.00,VWS V14.01,2013-03-15 03:34:00,
2013-03-14 22:39:00,64.5,51.6,30.29,SSW,200,3.0,13.0,63,0.00,,CLR,0.00,VWS V14.01,2013-03-15 03:39:00,
2013-03-14 22:44:00,64.3,51.9,30.29,South,178,5.0,15.0,64,0.00,,CLR,0.00,VWS V14.01,2013-03-15 03:44:00,
2013-03-14 22:49:00,64.2,52.2,30.29,ESE,111,0.0,15.0,65,0.00,,CLR,0.00,VWS V14.01,2013-03-15 03:49:00,
2013-03-14 22:54:00,63.9,51.9,30.29,SSE,161,3.0,11.0,65,0.00,,CLR,0.00,VWS V14.01,2013-03-15 03:54:00,
2013-03-14 22:59:00,63.7,52.1,30.29,SSE,148,0.0,11.0,66,0.00,,CLR,0.00,VWS V14.01,2013-03-15 03:59:00,
2013-03-14 23:00:00,63.7,52.1,30.29,SSE,150,5.0,7.0,66,0.00,,CLR,0.00,VWS V14.01,2013-03-15 04:00:00,
2013-03-14 23:05:00,63.4,51.9,30.29,SSE,158,4.0,7.0,66,0.00,,CLR,0.00,VWS V14.01,2013-03-15 04:05:00,
2013-03-14 23:10:00,63.2,52.1,30.29,SSE,163,0.0,10.0,67,0.00,,CLR,0.00,VWS V14.01,2013-03-15 04:10:00,
2013-03-14 23:15:00,63.1,52.0,30.29,South,171,3.0,11.0,67,0.00,,CLR,0.00,VWS V14.01,2013-03-15 04:15:00,
2013-03-14 23:20:00,62.9,52.2,30.29,SSE,162,2.0,2.0,68,0.00,,CLR,0.00,VWS V14.01,2013-03-15 04:20:00,
2013-03-14 23:25:00,62.7,52.0,30.29,SSE,159,5.0,11.0,68,0.00,,CLR,0.00,VWS V14.01,2013-03-15 04:25:00,
2013-03-14 23:30:00,62.6,52.3,30.28,SE,146,5.0,6.0,69,0.00,,CLR,0.00,VWS V14.01,2013-03-15 04:30:00,
2013-03-14 23:35:00,62.4,52.1,30.28,SSE,160,0.0,10.0,69,0.00,,CLR,0.00,VWS V14.01,2013-03-15 04:35:00,
2013-03-14 23:40:00,62.3,52.4,30.28,SSE,153,0.0,0.0,70,0.00,,CLR,0.00,VWS V14.01,2013-03-15 04:40:00,
2013-03-14 23:45:00,62.1,52.2,30.28,SSE,156,0.0,6.0,70,0.00,,CLR,0.00,VWS V14.01,2013-03-15 04:45:00,
2013-03-14 23:50:00,61.8,51.9,30.28,SSE,167,2.0,11.0,70,0.00,,CLR,0.00,VWS V14.01,2013-03-15 04:50:00,
2013-03-14 23:55:00,61.8,51.9,30.28,SSE,167,2.0,11.0,70,0.00,,CLR,0.00,VWS V14.01,2013-03-15 04:55:00,